| time (UTC) | temp C | wind direction | speed KPH | gust KPH | rain 1hr cm | rain 24hr cm | rain mn cm | humidity % | barometer mb |
| 20260504174520 | 24 | 274 | 4.8 | 16.1 | 0.00 | 0.08 | 0.08 | 54 | 1010.2 |
| 20260504173015 | 23 | 204 | 0.0 | 14.5 | 0.00 | 0.08 | 0.08 | 55 | 1010.3 |
| 20260504081514 | 13 | 109 | 0.0 | 3.2 | 0.00 | 0.00 | 0.00 | 66 | 1012.3 |
| 20260504044644 | 12 | 152 | 0.0 | 3.2 | 0.00 | 0.00 | 0.00 | 61 | 1014.7 |
| 20260504043040 | 12 | 162 | 0.0 | 4.8 | 0.00 | 0.00 | 0.00 | 61 | 1014.7 |
| 20260504041538 | 12 | 63 | 0.0 | 4.8 | 0.00 | 0.00 | 0.00 | 61 | 1014.8 |
| 20260504040044 | 12 | 96 | 0.0 | 0.0 | 0.00 | 0.00 | 0.00 | 61 | 1014.8 |
| 20260504034553 | 12 | 93 | 0.0 | 4.8 | 0.00 | 0.00 | 0.00 | 61 | 1015.0 |
| 20260504033046 | 12 | 131 | 0.0 | 3.2 | 0.00 | 0.00 | 0.00 | 60 | 1015.1 |
| 20260504031537 | 12 | 127 | 0.0 | 3.2 | 0.00 | 0.00 | 0.00 | 61 | 1015.2 |
| 20260504030044 | 12 | 138 | 0.0 | 4.8 | 0.00 | 0.00 | 0.00 | 61 | 1015.6 |
| 20260504024538 | 12 | 171 | 0.0 | 0.0 | 0.00 | 0.00 | 0.00 | 61 | 1015.6 |
| 20260504023049 | 13 | 171 | 0.0 | 0.0 | 0.00 | 0.00 | 0.00 | 61 | 1015.5 |
| 20260504021537 | 13 | 171 | 0.0 | 0.0 | 0.00 | 0.00 | 0.00 | 59 | 1015.7 |
| 20260504020038 | 13 | 171 | 0.0 | 0.0 | 0.00 | 0.00 | 0.00 | 56 | 1015.8 |
| 20260504014545 | 15 | 171 | 0.0 | 0.0 | 0.00 | 0.00 | 0.00 | 54 | 1015.8 |
| 20260504013043 | 15 | 171 | 0.0 | 0.0 | 0.00 | 0.00 | 0.00 | 52 | 1015.7 |
| 20260504011535 | 15 | 171 | 0.0 | 0.0 | 0.00 | 0.00 | 0.00 | 51 | 1015.6 |
| 20260504010038 | 16 | 171 | 0.0 | 0.0 | 0.00 | 0.00 | 0.00 | 49 | 1015.2 |
| 20260504004537 | 16 | 159 | 0.0 | 4.8 | 0.00 | 0.00 | 0.00 | 47 | 1015.0 |
| 20260504003037 | 16 | 189 | 0.0 | 4.8 | 0.00 | 0.00 | 0.00 | 47 | 1014.9 |
| 20260504001536 | 16 | 129 | 1.6 | 11.3 | 0.00 | 0.00 | 0.00 | 47 | 1014.9 |
| 20260504000036 | 16 | 200 | 0.0 | 6.4 | 0.00 | 0.00 | 0.00 | 46 | 1014.8 |
| 20260503234541 | 17 | 257 | 4.8 | 11.3 | 0.00 | 0.00 | 0.00 | 44 | 1014.9 |
| 20260503233033 | 17 | 164 | 1.6 | 9.7 | 0.00 | 0.00 | 0.00 | 44 | 1014.9 |
| 20260503231534 | 17 | 176 | 0.0 | 9.7 | 0.00 | 0.00 | 0.00 | 43 | 1015.0 |
| 20260503230031 | 17 | 202 | 1.6 | 12.9 | 0.00 | 0.00 | 0.00 | 43 | 1015.3 |
| 20260503224529 | 18 | 130 | 3.2 | 12.9 | 0.00 | 0.00 | 0.00 | 41 | 1015.6 |
| 20260503223029 | 18 | 196 | 0.0 | 14.5 | 0.00 | 0.00 | 0.00 | 39 | 1015.8 |
| 20260503221527 | 18 | 208 | 4.8 | 12.9 | 0.00 | 0.00 | 0.00 | 37 | 1016.2 |
| 20260503220028 | 18 | 201 | 4.8 | 14.5 | 0.00 | 0.00 | 0.00 | 36 | 1016.0 |
| 20260503214627 | 19 | 219 | 4.8 | 14.5 | 0.00 | 0.00 | 0.00 | 36 | 1016.6 |
| 20260503213022 | 19 | 238 | 3.2 | 14.5 | 0.00 | 0.00 | 0.00 | 38 | 1016.8 |
| 20260503211523 | 19 | 169 | 3.2 | 11.3 | 0.00 | 0.00 | 0.00 | 39 | 1016.9 |
| 20260503210025 | 19 | 126 | 4.8 | 16.1 | 0.00 | 0.00 | 0.00 | 37 | 1016.7 |
| 20260503204517 | 19 | 195 | 3.2 | 16.1 | 0.00 | 0.00 | 0.00 | 36 | 1017.2 |
| 20260503203022 | 19 | 158 | 4.8 | 12.9 | 0.00 | 0.00 | 0.00 | 36 | 1017.2 |
| 20260503201516 | 18 | 279 | 3.2 | 12.9 | 0.00 | 0.00 | 0.00 | 38 | 1017.5 |
| 20260503200014 | 18 | 198 | 1.6 | 12.9 | 0.00 | 0.00 | 0.00 | 37 | 1017.6 |
| 20260503194513 | 18 | 204 | 6.4 | 16.1 | 0.00 | 0.00 | 0.00 | 36 | 1018.5 |
| 20260503193009 | 18 | 200 | 3.2 | 12.9 | 0.00 | 0.00 | 0.00 | 37 | 1018.8 |
| 20260503191507 | 18 | 284 | 4.8 | 14.5 | 0.00 | 0.00 | 0.00 | 38 | 1019.1 |
| 20260503190003 | 17 | 98 | 1.6 | 14.5 | 0.00 | 0.00 | 0.00 | 36 | 1019.2 |
| 20260503184601 | 17 | 198 | 4.8 | 14.5 | 0.00 | 0.00 | 0.00 | 37 | 1019.5 |
| 20260503183114 | 17 | 206 | 4.8 | 14.5 | 0.00 | 0.00 | 0.00 | 39 | 1019.7 |
| 20260503181555 | 16 | 184 | 4.8 | 14.5 | 0.00 | 0.00 | 0.00 | 41 | 1019.8 |
| 20260503180052 | 16 | 214 | 1.6 | 14.5 | 0.00 | 0.00 | 0.00 | 39 | 1020.1 |